Airfield :
LOGIN :

Register | Disclaimer

   EN    FR    IT 

 










Legend :    VFR   Marginal VFR   IFR   Intensive IFR   Very Intensive IFR
Visi :
Ceiling :
>= 8 km
>= 3000ft
5 to 8 km
1000 to 3000 ft
1500m to 5 km
500 to 1000 ft
800 to 1500m
200 to 500 ft
< 800m
< 200 ft
Symbols :   Thunderstorms  Fog  Heavy snow  Heavy precipitations  Wind > 20 kt
SIGMETs :     Misc.  Thunderstorms  Icing  Turbulence  Mountain Waves  Volcanic Ashes







- Airport Elevation : 525 ft
- IATA code : VAF
- Download approach charts


LFLU - Valence

CURRENT METAR :
  • 201400Z AUTO 02014KT 1400 HZ BKN072 19/10 Q1010

EXPIRED METARs :
  • 201330Z AUTO 02012KT 1200 HZ BKN070/// ///CB 19/11 Q1010
  • 201300Z AUTO 01012KT 9999 FEW034/// BKN064/// BKN076/// ///TCU 19/11 Q1010
  • 201230Z AUTO 36013KT 9999 SCT054 BKN070 OVC082 18/10 Q1010
  • 201200Z AUTO 36015KT 9999 OVC046 17/10 Q1010
  • 201130Z AUTO 36016KT 9999 OVC046 17/10 Q1009

TAF N/A
No reported NOTAMs for that airfield.



MET'MAP, your aeronautical weather chart ! - Copyright ORBIFLY December 2007 - Disclaimer

ORBIFLY MET'MAP TEAM :

Programming & Development : Alexandra Zaïnal
Concept & Development : Baudouin d'Aumeries
Co-Development & Prog : Marc-Olivier Méhu
Technical & hardware support : Manuel Goepfert

Contact : metmap@orbifly.com




SOURCES & CREDITS :

   NOAA